Time,TemperatureF,DewpointF,PressureIn,WindDirection,WindDirectionDegrees,WindSpeedMPH,WindSpeedGustMPH,Humidity,HourlyPrecipIn,Conditions,Clouds,dailyrainin,SolarRadiationWatts/m^2,SoftwareType,DateUTC
2015-08-27 00:00:00,66.6,63.3,30.04,NNW,328,0.0,0.0,89,0.00,,,0.00,0,Wunderground v.1.15,2015-08-26 22:00:00,
2015-08-27 00:05:00,66.5,62.8,30.04,NNW,328,0.0,0.0,88,0.00,,,0.00,0,Wunderground v.1.15,2015-08-26 22:05:00,
2015-08-27 00:10:00,66.5,62.8,30.04,NNW,328,0.0,0.0,88,0.00,,,0.00,0,Wunderground v.1.15,2015-08-26 22:10:00,
2015-08-27 00:15:00,66.4,62.7,30.04,NNW,328,0.0,0.0,88,0.00,,,0.00,0,Wunderground v.1.15,2015-08-26 22:15:00,
2015-08-27 00:25:00,66.3,62.6,30.04,NNW,328,0.0,0.0,88,0.00,,,0.00,0,Wunderground v.1.15,2015-08-26 22:25:00,
2015-08-27 00:30:00,66.2,62.5,30.04,NNW,328,0.0,0.0,88,0.00,,,0.00,0,Wunderground v.1.15,2015-08-26 22:30:00,
2015-08-27 00:35:00,66.2,62.5,30.04,NNW,328,0.0,0.0,88,0.00,,,0.00,0,Wunderground v.1.15,2015-08-26 22:35:00,
2015-08-27 00:45:00,65.9,62.6,30.03,NNW,328,0.0,0.0,89,0.00,,,0.00,0,Wunderground v.1.15,2015-08-26 22:45:00,
2015-08-27 00:50:00,65.8,62.1,30.03,NNW,328,0.0,0.0,88,0.00,,,0.00,0,Wunderground v.1.15,2015-08-26 22:50:00,
2015-08-27 01:00:00,65.6,62.3,30.03,NNW,328,0.0,0.0,89,0.00,,,0.00,0,Wunderground v.1.15,2015-08-26 23:00:00,
2015-08-27 01:05:00,65.5,62.2,30.03,NNW,328,0.0,0.0,89,0.00,,,0.00,0,Wunderground v.1.15,2015-08-26 23:05:00,
2015-08-27 01:10:00,65.4,62.1,30.03,NNW,328,0.0,0.0,89,0.00,,,0.00,0,Wunderground v.1.15,2015-08-26 23:10:00,
2015-08-27 01:15:00,65.3,62.0,30.03,NNW,328,0.0,0.0,89,0.00,,,0.00,0,Wunderground v.1.15,2015-08-26 23:15:00,
2015-08-27 01:20:00,65.2,61.9,30.03,NNW,328,0.0,0.0,89,0.00,,,0.00,0,Wunderground v.1.15,2015-08-26 23:20:00,
2015-08-27 01:25:00,65.1,61.8,30.03,NNW,328,0.0,0.0,89,0.00,,,0.00,0,Wunderground v.1.15,2015-08-26 23:25:00,
2015-08-27 01:35:00,65.0,62.0,30.04,NNW,333,0.0,0.0,90,0.00,,,0.00,0,Wunderground v.1.15,2015-08-26 23:35:00,
2015-08-27 01:45:00,65.1,62.1,30.04,NNW,340,0.0,0.0,90,0.00,,,0.00,0,Wunderground v.1.15,2015-08-26 23:45:00,
2015-08-27 01:50:00,65.1,61.8,30.04,NNW,336,0.0,0.0,89,0.00,,,0.00,0,Wunderground v.1.15,2015-08-26 23:50:00,
2015-08-27 01:55:00,65.2,61.9,30.04,NNW,336,0.0,0.0,89,0.00,,,0.00,0,Wunderground v.1.15,2015-08-26 23:55:00,
2015-08-27 02:00:00,65.2,61.9,30.04,NNW,336,0.0,0.0,89,0.00,,,0.00,0,Wunderground v.1.15,2015-08-27 00:00:00,
2015-08-27 02:05:00,65.2,61.9,30.03,NNW,336,0.0,0.0,89,0.00,,,0.00,0,Wunderground v.1.15,2015-08-27 00:05:00,
2015-08-27 02:10:00,65.3,62.0,30.03,NNW,336,0.0,0.0,89,0.00,,,0.00,0,Wunderground v.1.15,2015-08-27 00:10:00,
2015-08-27 02:20:00,65.2,61.9,30.03,NNW,336,0.0,0.0,89,0.00,,,0.00,0,Wunderground v.1.15,2015-08-27 00:20:00,
2015-08-27 02:25:00,65.2,61.9,30.03,NNW,336,0.0,0.0,89,0.00,,,0.00,0,Wunderground v.1.15,2015-08-27 00:25:00,
2015-08-27 02:35:00,65.2,61.9,30.03,NNW,336,0.0,0.0,89,0.00,,,0.00,0,Wunderground v.1.15,2015-08-27 00:35:00,
2015-08-27 02:40:00,65.2,61.9,30.03,NNW,333,0.0,0.0,89,0.00,,,0.00,0,Wunderground v.1.15,2015-08-27 00:40:00,
2015-08-27 02:50:00,65.2,61.9,30.03,NNW,333,0.0,0.0,89,0.00,,,0.00,0,Wunderground v.1.15,2015-08-27 00:50:00,
2015-08-27 03:00:00,65.2,61.9,30.03,NNW,345,0.0,0.0,89,0.00,,,0.00,0,Wunderground v.1.15,2015-08-27 01:00:00,
2015-08-27 03:05:00,65.2,61.9,30.03,NNW,346,0.0,0.0,89,0.00,,,0.00,0,Wunderground v.1.15,2015-08-27 01:05:00,
2015-08-27 03:15:00,65.1,62.1,30.03,NNW,345,0.0,0.0,90,0.00,,,0.00,0,Wunderground v.1.15,2015-08-27 01:15:00,
2015-08-27 03:20:00,65.0,62.0,30.03,NNW,345,0.0,0.0,90,0.00,,,0.00,0,Wunderground v.1.15,2015-08-27 01:20:00,
2015-08-27 03:25:00,64.9,61.9,30.03,NNW,329,0.0,0.0,90,0.00,,,0.00,0,Wunderground v.1.15,2015-08-27 01:25:00,
2015-08-27 03:30:00,64.8,61.8,30.03,NNW,334,0.0,0.0,90,0.00,,,0.00,0,Wunderground v.1.15,2015-08-27 01:30:00,
2015-08-27 03:35:00,64.7,62.3,30.03,NNW,336,0.0,0.0,92,0.00,,,0.00,0,Wunderground v.1.15,2015-08-27 01:35:00,
2015-08-27 03:45:00,64.6,61.9,30.03,NNW,328,0.0,0.0,91,0.00,,,0.00,0,Wunderground v.1.15,2015-08-27 01:45:00,
2015-08-27 03:50:00,64.6,61.9,30.03,NNW,339,0.0,0.0,91,0.00,,,0.00,0,Wunderground v.1.15,2015-08-27 01:50:00,
2015-08-27 03:55:00,64.5,61.8,30.03,NNW,338,0.0,0.0,91,0.00,,,0.00,0,Wunderground v.1.15,2015-08-27 01:55:00,
2015-08-27 04:00:00,64.4,61.7,30.03,NNW,338,0.0,0.0,91,0.00,,,0.00,0,Wunderground v.1.15,2015-08-27 02:00:00,
2015-08-27 04:05:00,64.3,61.6,30.02,NNW,344,0.0,0.0,91,0.00,,,0.00,0,Wunderground v.1.15,2015-08-27 02:05:00,
2015-08-27 04:10:00,64.3,61.6,30.02,NNW,336,0.0,0.0,91,0.00,,,0.00,0,Wunderground v.1.15,2015-08-27 02:10:00,
2015-08-27 04:15:00,64.2,61.5,30.02,NNW,333,0.0,0.0,91,0.00,,,0.00,0,Wunderground v.1.15,2015-08-27 02:15:00,
2015-08-27 04:25:00,64.2,61.5,30.02,NNW,331,0.0,0.0,91,0.00,,,0.00,0,Wunderground v.1.15,2015-08-27 02:25:00,
2015-08-27 04:30:00,64.1,61.4,30.02,NNW,335,0.0,0.0,91,0.00,,,0.00,0,Wunderground v.1.15,2015-08-27 02:30:00,
2015-08-27 04:35:00,64.1,61.4,30.02,NNW,336,0.0,0.0,91,0.00,,,0.00,0,Wunderground v.1.15,2015-08-27 02:35:00,
2015-08-27 04:40:00,64.0,61.3,30.02,NNW,336,0.0,0.0,91,0.00,,,0.00,0,Wunderground v.1.15,2015-08-27 02:40:00,
2015-08-27 04:45:00,64.0,61.3,30.02,NNW,333,0.0,0.0,91,0.00,,,0.00,0,Wunderground v.1.15,2015-08-27 02:45:00,
2015-08-27 04:55:00,63.8,61.4,30.02,NNW,331,0.0,0.0,92,0.00,,,0.00,0,Wunderground v.1.15,2015-08-27 02:55:00,
2015-08-27 05:00:00,63.8,61.4,30.02,NNW,346,0.0,0.0,92,0.00,,,0.00,0,Wunderground v.1.15,2015-08-27 03:00:00,
2015-08-27 05:05:00,63.7,61.3,30.02,NNW,333,0.0,0.0,92,0.00,,,0.00,0,Wunderground v.1.15,2015-08-27 03:05:00,
2015-08-27 05:10:00,63.7,61.3,30.02,NNW,344,0.0,0.0,92,0.00,,,0.00,0,Wunderground v.1.15,2015-08-27 03:10:00,
2015-08-27 05:15:00,63.7,61.3,30.02,NNW,340,0.0,0.0,92,0.00,,,0.00,0,Wunderground v.1.15,2015-08-27 03:15:00,
2015-08-27 05:20:00,63.7,61.3,30.01,NNW,340,0.0,0.0,92,0.00,,,0.00,0,Wunderground v.1.15,2015-08-27 03:20:00,
2015-08-27 05:25:00,63.6,61.2,30.02,NW,325,0.0,0.0,92,0.00,,,0.00,0,Wunderground v.1.15,2015-08-27 03:25:00,
2015-08-27 05:30:00,63.6,61.2,30.02,NNW,336,0.0,0.0,92,0.00,,,0.00,0,Wunderground v.1.15,2015-08-27 03:30:00,
2015-08-27 05:35:00,63.6,61.2,30.02,NW,324,0.0,0.0,92,0.00,,,0.00,0,Wunderground v.1.15,2015-08-27 03:35:00,
2015-08-27 05:40:00,63.5,61.1,30.02,NW,325,0.0,0.0,92,0.00,,,0.00,0,Wunderground v.1.15,2015-08-27 03:40:00,
2015-08-27 05:45:00,63.5,61.1,30.02,NNW,328,0.0,0.0,92,0.00,,,0.00,0,Wunderground v.1.15,2015-08-27 03:45:00,
2015-08-27 05:50:00,63.4,61.0,30.01,NNW,328,0.0,0.0,92,0.00,,,0.00,0,Wunderground v.1.15,2015-08-27 03:50:00,
2015-08-27 05:55:00,63.4,61.0,30.01,NNW,328,0.0,0.0,92,0.00,,,0.00,0,Wunderground v.1.15,2015-08-27 03:55:00,
2015-08-27 06:05:00,63.4,61.0,30.01,NNW,328,0.0,0.0,92,0.00,,,0.00,0,Wunderground v.1.15,2015-08-27 04:05:00,
2015-08-27 06:10:00,63.4,61.0,30.01,NNW,328,0.0,0.0,92,0.00,,,0.00,0,Wunderground v.1.15,2015-08-27 04:10:00,
2015-08-27 06:15:00,63.3,60.9,30.01,NNW,328,0.0,0.0,92,0.00,,,0.00,0,Wunderground v.1.15,2015-08-27 04:15:00,
2015-08-27 06:20:00,63.2,60.8,30.02,NW,318,0.0,0.0,92,0.00,,,0.00,0,Wunderground v.1.15,2015-08-27 04:20:00,
2015-08-27 06:25:00,63.2,60.8,30.02,NNW,330,0.0,0.0,92,0.00,,,0.00,0,Wunderground v.1.15,2015-08-27 04:25:00,
2015-08-27 06:30:00,63.1,60.7,30.02,NNW,327,0.0,0.0,92,0.00,,,0.00,0,Wunderground v.1.15,2015-08-27 04:30:00,
2015-08-27 06:35:00,63.2,60.8,30.02,NNW,327,0.0,0.0,92,0.00,,,0.00,0,Wunderground v.1.15,2015-08-27 04:35:00,
2015-08-27 06:40:00,63.2,60.8,30.02,NNW,327,0.0,0.0,92,0.00,,,0.00,0,Wunderground v.1.15,2015-08-27 04:40:00,
2015-08-27 06:45:00,63.1,60.7,30.02,NNW,327,0.0,0.0,92,0.00,,,0.00,5,Wunderground v.1.15,2015-08-27 04:45:00,
2015-08-27 06:50:00,63.1,60.7,30.02,NNW,327,0.0,0.0,92,0.00,,,0.00,9,Wunderground v.1.15,2015-08-27 04:50:00,
2015-08-27 06:55:00,63.0,60.6,30.02,NNW,327,0.0,0.0,92,0.00,,,0.00,12,Wunderground v.1.15,2015-08-27 04:55:00,
2015-08-27 07:00:00,63.1,61.0,30.02,NNW,327,0.0,0.0,93,0.00,,,0.00,14,Wunderground v.1.15,2015-08-27 05:00:00,
2015-08-27 07:05:00,63.1,61.0,30.02,North,355,0.0,0.0,93,0.00,,,0.00,19,Wunderground v.1.15,2015-08-27 05:05:00,
2015-08-27 07:15:00,63.3,60.9,30.03,North,355,0.0,0.0,92,0.00,,,0.00,26,Wunderground v.1.15,2015-08-27 05:15:00,
2015-08-27 07:20:00,63.3,60.9,30.03,North,355,0.0,0.0,92,0.00,,,0.00,28,Wunderground v.1.15,2015-08-27 05:20:00,
2015-08-27 07:25:00,63.2,60.8,30.03,North,355,0.0,0.0,92,0.00,,,0.00,32,Wunderground v.1.15,2015-08-27 05:25:00,
2015-08-27 07:30:00,63.2,60.8,30.03,North,355,0.0,0.0,92,0.00,,,0.00,33,Wunderground v.1.15,2015-08-27 05:30:00,
2015-08-27 07:35:00,63.4,61.0,30.03,North,355,0.0,0.0,92,0.00,,,0.00,35,Wunderground v.1.15,2015-08-27 05:35:00,
2015-08-27 07:40:00,63.6,61.2,30.03,North,355,0.0,0.0,92,0.00,,,0.00,37,Wunderground v.1.15,2015-08-27 05:40:00,
2015-08-27 07:50:00,64.1,61.7,30.03,NNW,344,1.0,1.0,92,0.00,,,0.00,42,Wunderground v.1.15,2015-08-27 05:50:00,
2015-08-27 07:55:00,64.4,61.7,30.03,NNW,331,1.0,2.0,91,0.00,,,0.00,44,Wunderground v.1.15,2015-08-27 05:55:00,
2015-08-27 08:00:00,64.7,62.0,30.03,NW,325,1.0,1.0,91,0.00,,,0.00,46,Wunderground v.1.15,2015-08-27 06:00:00,
2015-08-27 08:05:00,65.1,62.1,30.04,NNW,337,2.0,2.0,90,0.00,,,0.00,49,Wunderground v.1.15,2015-08-27 06:05:00,
2015-08-27 08:10:00,65.5,62.5,30.04,NNW,329,1.0,1.0,90,0.00,,,0.00,49,Wunderground v.1.15,2015-08-27 06:10:00,
2015-08-27 08:15:00,65.8,62.8,30.04,NNW,329,1.0,1.0,90,0.00,,,0.00,72,Wunderground v.1.15,2015-08-27 06:15:00,
2015-08-27 08:25:00,66.9,63.2,30.03,NNW,329,0.0,2.0,88,0.00,,,0.00,211,Wunderground v.1.15,2015-08-27 06:25:00,
2015-08-27 08:30:00,67.7,63.7,30.04,NNW,329,0.0,0.0,87,0.00,,,0.00,227,Wunderground v.1.15,2015-08-27 06:30:00,
2015-08-27 08:35:00,68.6,64.2,30.03,NNW,329,0.0,0.0,86,0.00,,,0.00,243,Wunderground v.1.15,2015-08-27 06:35:00,
2015-08-27 08:40:00,69.5,64.8,30.04,NNW,329,0.0,0.0,85,0.00,,,0.00,255,Wunderground v.1.15,2015-08-27 06:40:00,
2015-08-27 08:45:00,70.4,65.0,30.04,NNW,329,0.0,0.0,83,0.00,,,0.00,271,Wunderground v.1.15,2015-08-27 06:45:00,
2015-08-27 08:50:00,71.0,65.2,30.04,NNW,329,0.0,0.0,82,0.00,,,0.00,283,Wunderground v.1.15,2015-08-27 06:50:00,
2015-08-27 08:55:00,71.6,65.5,30.04,NNW,335,0.0,0.0,81,0.00,,,0.00,294,Wunderground v.1.15,2015-08-27 06:55:00,
2015-08-27 09:00:00,71.7,64.8,30.04,NW,326,0.0,0.0,79,0.00,,,0.00,302,Wunderground v.1.15,2015-08-27 07:00:00,
2015-08-27 09:05:00,71.5,65.0,30.04,NW,326,0.0,0.0,80,0.00,,,0.00,311,Wunderground v.1.15,2015-08-27 07:05:00,
2015-08-27 09:10:00,71.5,65.0,30.04,NW,326,0.0,0.0,80,0.00,,,0.00,316,Wunderground v.1.15,2015-08-27 07:10:00,
2015-08-27 09:15:00,71.9,65.4,30.04,NW,326,0.0,0.0,80,0.00,,,0.00,346,Wunderground v.1.15,2015-08-27 07:15:00,
2015-08-27 09:20:00,72.6,65.7,30.04,East,93,0.0,0.0,79,0.00,,,0.00,360,Wunderground v.1.15,2015-08-27 07:20:00,
2015-08-27 09:30:00,73.9,65.9,30.04,East,86,0.0,0.0,76,0.00,,,0.00,381,Wunderground v.1.15,2015-08-27 07:30:00,
2015-08-27 09:35:00,74.2,65.4,30.04,NNW,335,0.0,0.0,74,0.00,,,0.00,404,Wunderground v.1.15,2015-08-27 07:35:00,
2015-08-27 09:40:00,74.2,65.8,30.04,NNW,335,0.0,0.0,75,0.00,,,0.00,413,Wunderground v.1.15,2015-08-27 07:40:00,
2015-08-27 09:50:00,75.0,66.5,30.04,East,94,0.0,0.0,75,0.00,,,0.00,441,Wunderground v.1.15,2015-08-27 07:50:00,
2015-08-27 09:55:00,75.3,66.0,30.04,East,94,0.0,0.0,73,0.00,,,0.00,454,Wunderground v.1.15,2015-08-27 07:55:00,
2015-08-27 10:00:00,75.9,66.6,30.04,SE,144,0.0,3.0,73,0.00,,,0.00,468,Wunderground v.1.15,2015-08-27 08:00:00,
2015-08-27 10:10:00,75.8,65.3,30.04,SSE,147,0.0,4.0,70,0.00,,,0.00,490,Wunderground v.1.15,2015-08-27 08:10:00,
2015-08-27 10:15:00,75.7,65.2,30.04,SE,126,1.0,4.0,70,0.00,,,0.00,503,Wunderground v.1.15,2015-08-27 08:15:00,
2015-08-27 10:20:00,76.1,64.8,30.04,SE,138,1.0,1.0,68,0.00,,,0.00,519,Wunderground v.1.15,2015-08-27 08:20:00,
2015-08-27 10:30:00,76.8,66.3,30.04,ESE,123,0.0,0.0,70,0.00,,,0.00,540,Wunderground v.1.15,2015-08-27 08:30:00,
2015-08-27 10:40:00,77.2,65.8,30.04,SE,132,0.0,0.0,68,0.00,,,0.00,563,Wunderground v.1.15,2015-08-27 08:40:00,
2015-08-27 10:45:00,77.6,65.3,30.04,WSW,252,0.0,0.0,66,0.00,,,0.00,577,Wunderground v.1.15,2015-08-27 08:45:00,
2015-08-27 10:50:00,77.9,65.6,30.04,WSW,250,0.0,0.0,66,0.00,,,0.00,584,Wunderground v.1.15,2015-08-27 08:50:00,
2015-08-27 10:55:00,78.4,65.7,30.04,SSW,210,0.0,0.0,65,0.00,,,0.00,598,Wunderground v.1.15,2015-08-27 08:55:00,
2015-08-27 11:00:00,78.3,66.4,30.04,SSE,147,1.0,1.0,67,0.00,,,0.00,606,Wunderground v.1.15,2015-08-27 09:00:00,
2015-08-27 11:05:00,78.7,66.4,30.04,South,189,1.0,3.0,66,0.00,,,0.00,619,Wunderground v.1.15,2015-08-27 09:05:00,
2015-08-27 11:10:00,79.0,66.2,30.04,South,186,1.0,1.0,65,0.00,,,0.00,629,Wunderground v.1.15,2015-08-27 09:10:00,
2015-08-27 11:15:00,79.2,66.4,30.04,South,180,1.0,1.0,65,0.00,,,0.00,629,Wunderground v.1.15,2015-08-27 09:15:00,
2015-08-27 11:20:00,79.4,67.0,30.04,South,188,0.0,3.0,66,0.00,,,0.00,636,Wunderground v.1.15,2015-08-27 09:20:00,
2015-08-27 11:25:00,79.3,66.1,30.04,SSE,163,1.0,3.0,64,0.00,,,0.00,638,Wunderground v.1.15,2015-08-27 09:25:00,
2015-08-27 11:30:00,79.3,66.1,30.04,SE,146,1.0,3.0,64,0.00,,,0.00,649,Wunderground v.1.15,2015-08-27 09:30:00,
2015-08-27 11:35:00,79.0,65.8,30.04,SSE,148,1.0,3.0,64,0.00,,,0.00,664,Wunderground v.1.15,2015-08-27 09:35:00,
2015-08-27 11:45:00,79.6,67.7,30.04,South,177,1.0,1.0,67,0.00,,,0.00,689,Wunderground v.1.15,2015-08-27 09:45:00,
2015-08-27 11:50:00,79.9,67.5,30.04,West,267,1.0,1.0,66,0.00,,,0.00,696,Wunderground v.1.15,2015-08-27 09:50:00,
2015-08-27 12:00:00,80.3,66.1,30.04,West,264,2.0,2.0,62,0.00,,,0.00,701,Wunderground v.1.15,2015-08-27 10:00:00,
2015-08-27 12:05:00,79.9,65.7,30.05,SE,146,2.0,3.0,62,0.00,,,0.00,362,Wunderground v.1.15,2015-08-27 10:05:00,
2015-08-27 12:10:00,79.9,65.7,30.04,SSE,154,3.0,3.0,62,0.00,,,0.00,689,Wunderground v.1.15,2015-08-27 10:10:00,
2015-08-27 12:15:00,80.1,65.4,30.05,SSE,166,3.0,3.0,61,0.00,,,0.00,719,Wunderground v.1.15,2015-08-27 10:15:00,
2015-08-27 12:20:00,80.4,66.2,30.05,South,177,3.0,4.0,62,0.00,,,0.00,703,Wunderground v.1.15,2015-08-27 10:20:00,
2015-08-27 12:25:00,80.6,66.4,30.05,SSE,163,3.0,6.0,62,0.00,,,0.00,708,Wunderground v.1.15,2015-08-27 10:25:00,
2015-08-27 12:30:00,80.4,65.2,30.04,WSW,244,3.0,3.0,60,0.00,,,0.00,724,Wunderground v.1.15,2015-08-27 10:30:00,
2015-08-27 12:35:00,80.6,66.4,30.05,SSE,157,1.0,8.0,62,0.00,,,0.00,722,Wunderground v.1.15,2015-08-27 10:35:00,
2015-08-27 12:40:00,80.7,65.0,30.04,SSE,154,3.0,3.0,59,0.00,,,0.00,721,Wunderground v.1.15,2015-08-27 10:40:00,
2015-08-27 12:45:00,80.1,65.4,30.04,ESE,108,3.0,3.0,61,0.00,,,0.00,737,Wunderground v.1.15,2015-08-27 10:45:00,
2015-08-27 12:55:00,80.8,65.6,30.04,SSE,162,3.0,5.0,60,0.00,,,0.00,761,Wunderground v.1.15,2015-08-27 10:55:00,
2015-08-27 13:00:00,80.8,66.1,30.04,SSE,156,4.0,7.0,61,0.00,,,0.00,728,Wunderground v.1.15,2015-08-27 11:00:00,
2015-08-27 13:05:00,81.1,66.4,30.04,ESE,120,3.0,7.0,61,0.00,,,0.00,721,Wunderground v.1.15,2015-08-27 11:05:00,
2015-08-27 13:15:00,81.2,66.9,30.04,SSE,164,2.0,2.0,62,0.00,,,0.00,733,Wunderground v.1.15,2015-08-27 11:15:00,
2015-08-27 13:20:00,81.2,65.5,30.04,WSW,252,3.0,3.0,59,0.00,,,0.00,738,Wunderground v.1.15,2015-08-27 11:20:00,
2015-08-27 13:30:00,81.7,64.0,30.04,SSE,165,2.0,6.0,55,0.00,,,0.00,733,Wunderground v.1.15,2015-08-27 11:30:00,
2015-08-27 13:35:00,81.2,64.5,30.04,SSE,157,3.0,9.0,57,0.00,,,0.00,751,Wunderground v.1.15,2015-08-27 11:35:00,
2015-08-27 13:45:00,81.7,64.0,30.04,SSE,150,3.0,3.0,55,0.00,,,0.00,744,Wunderground v.1.15,2015-08-27 11:45:00,
2015-08-27 13:55:00,82.1,64.3,30.04,NW,321,0.0,2.0,55,0.00,,,0.00,751,Wunderground v.1.15,2015-08-27 11:55:00,
2015-08-27 14:00:00,82.6,66.3,30.04,West,267,0.0,0.0,58,0.00,,,0.00,733,Wunderground v.1.15,2015-08-27 12:00:00,
2015-08-27 14:10:00,82.4,65.6,30.03,WNW,283,1.0,2.0,57,0.00,,,0.00,756,Wunderground v.1.15,2015-08-27 12:10:00,
2015-08-27 14:15:00,82.6,64.3,30.03,West,277,1.0,2.0,54,0.00,,,0.00,749,Wunderground v.1.15,2015-08-27 12:15:00,
2015-08-27 14:20:00,82.8,65.0,30.03,South,178,1.0,1.0,55,0.00,,,0.00,726,Wunderground v.1.15,2015-08-27 12:20:00,
2015-08-27 14:25:00,82.8,65.0,30.03,SW,235,2.0,4.0,55,0.00,,,0.00,714,Wunderground v.1.15,2015-08-27 12:25:00,
2015-08-27 14:30:00,83.2,64.8,30.03,WNW,300,3.0,4.0,54,0.00,,,0.00,721,Wunderground v.1.15,2015-08-27 12:30:00,
2015-08-27 14:35:00,83.4,66.1,30.02,South,169,2.0,9.0,56,0.00,,,0.00,719,Wunderground v.1.15,2015-08-27 12:35:00,
2015-08-27 14:40:00,83.2,65.9,30.02,SSW,205,2.0,5.0,56,0.00,,,0.00,710,Wunderground v.1.15,2015-08-27 12:40:00,
2015-08-27 14:45:00,83.0,64.1,30.02,SSW,196,2.0,5.0,53,0.00,,,0.00,715,Wunderground v.1.15,2015-08-27 12:45:00,
2015-08-27 14:50:00,83.1,64.2,30.02,West,275,1.0,1.0,53,0.00,,,0.00,696,Wunderground v.1.15,2015-08-27 12:50:00,
2015-08-27 14:55:00,83.4,65.0,30.02,SW,215,0.0,1.0,54,0.00,,,0.00,640,Wunderground v.1.15,2015-08-27 12:55:00,
2015-08-27 15:00:00,83.3,66.0,30.02,SSE,156,0.0,0.0,56,0.00,,,0.00,677,Wunderground v.1.15,2015-08-27 13:00:00,
2015-08-27 15:10:00,83.1,64.7,30.01,West,275,1.0,6.0,54,0.00,,,0.00,663,Wunderground v.1.15,2015-08-27 13:10:00,
2015-08-27 15:15:00,83.2,64.8,30.01,West,280,2.0,6.0,54,0.00,,,0.00,670,Wunderground v.1.15,2015-08-27 13:15:00,
2015-08-27 15:20:00,83.3,64.9,30.01,NNW,333,1.0,1.0,54,0.00,,,0.00,673,Wunderground v.1.15,2015-08-27 13:20:00,
2015-08-27 15:25:00,83.3,64.9,30.01,South,182,0.0,2.0,54,0.00,,,0.00,656,Wunderground v.1.15,2015-08-27 13:25:00,
2015-08-27 15:30:00,83.5,64.0,30.01,SSE,165,1.0,1.0,52,0.00,,,0.00,661,Wunderground v.1.15,2015-08-27 13:30:00,
2015-08-27 15:40:00,83.4,63.4,30.01,SSE,167,0.0,5.0,51,0.00,,,0.00,657,Wunderground v.1.15,2015-08-27 13:40:00,
2015-08-27 15:45:00,83.7,64.2,30.01,WSW,257,1.0,5.0,52,0.00,,,0.00,601,Wunderground v.1.15,2015-08-27 13:45:00,
2015-08-27 15:50:00,83.9,64.4,30.01,SSW,198,2.0,2.0,52,0.00,,,0.00,592,Wunderground v.1.15,2015-08-27 13:50:00,
2015-08-27 15:55:00,83.9,63.3,30.01,SE,131,1.0,2.0,50,0.00,,,0.00,520,Wunderground v.1.15,2015-08-27 13:55:00,
2015-08-27 16:00:00,83.8,63.7,30.01,West,273,1.0,3.0,51,0.00,,,0.00,596,Wunderground v.1.15,2015-08-27 14:00:00,
2015-08-27 16:05:00,83.6,63.0,30.01,SSE,160,1.0,5.0,50,0.00,,,0.00,591,Wunderground v.1.15,2015-08-27 14:05:00,
2015-08-27 16:10:00,83.9,63.8,30.00,South,174,1.0,1.0,51,0.00,,,0.00,578,Wunderground v.1.15,2015-08-27 14:10:00,
2015-08-27 16:15:00,84.0,63.9,30.00,SSE,165,1.0,5.0,51,0.00,,,0.00,561,Wunderground v.1.15,2015-08-27 14:15:00,
2015-08-27 16:20:00,84.2,62.4,30.00,SSE,161,1.0,1.0,48,0.00,,,0.00,534,Wunderground v.1.15,2015-08-27 14:20:00,
2015-08-27 16:25:00,84.4,62.6,30.00,South,171,1.0,1.0,48,0.00,,,0.00,534,Wunderground v.1.15,2015-08-27 14:25:00,
2015-08-27 16:35:00,84.3,63.6,30.00,WNW,286,1.0,1.0,50,0.00,,,0.00,499,Wunderground v.1.15,2015-08-27 14:35:00,
2015-08-27 16:40:00,84.1,63.5,30.00,South,188,2.0,2.0,50,0.00,,,0.00,434,Wunderground v.1.15,2015-08-27 14:40:00,
2015-08-27 16:45:00,83.7,63.7,30.00,SW,235,2.0,2.0,51,0.00,,,0.00,443,Wunderground v.1.15,2015-08-27 14:45:00,
2015-08-27 16:50:00,83.7,63.7,30.00,SW,217,1.0,1.0,51,0.00,,,0.00,380,Wunderground v.1.15,2015-08-27 14:50:00,
2015-08-27 16:55:00,83.7,65.3,30.00,WNW,285,0.0,3.0,54,0.00,,,0.00,346,Wunderground v.1.15,2015-08-27 14:55:00,
2015-08-27 17:00:00,83.6,64.1,30.00,WSW,253,1.0,4.0,52,0.00,,,0.00,399,Wunderground v.1.15,2015-08-27 15:00:00,
2015-08-27 17:05:00,83.6,64.7,30.00,WNW,288,2.0,4.0,53,0.00,,,0.00,441,Wunderground v.1.15,2015-08-27 15:05:00,
2015-08-27 17:10:00,83.6,63.6,30.00,West,279,2.0,2.0,51,0.00,,,0.00,411,Wunderground v.1.15,2015-08-27 15:10:00,
2015-08-27 17:15:00,83.6,64.1,30.00,SSE,158,1.0,3.0,52,0.00,,,0.00,374,Wunderground v.1.15,2015-08-27 15:15:00,
2015-08-27 17:25:00,83.3,65.4,30.00,NW,319,1.0,2.0,55,0.00,,,0.00,348,Wunderground v.1.15,2015-08-27 15:25:00,
2015-08-27 17:30:00,83.1,64.2,30.00,South,189,0.0,3.0,53,0.00,,,0.00,378,Wunderground v.1.15,2015-08-27 15:30:00,
2015-08-27 17:35:00,83.1,63.1,30.00,SW,224,1.0,3.0,51,0.00,,,0.00,251,Wunderground v.1.15,2015-08-27 15:35:00,
2015-08-27 17:40:00,83.2,63.2,30.00,South,175,2.0,2.0,51,0.00,,,0.00,304,Wunderground v.1.15,2015-08-27 15:40:00,
2015-08-27 17:45:00,83.0,61.9,30.00,South,175,1.0,2.0,49,0.00,,,0.00,308,Wunderground v.1.15,2015-08-27 15:45:00,
2015-08-27 17:55:00,82.9,64.0,30.00,WNW,288,0.0,0.0,53,0.00,,,0.00,221,Wunderground v.1.15,2015-08-27 15:55:00,
2015-08-27 18:00:00,82.8,63.9,29.99,West,264,1.0,6.0,53,0.00,,,0.00,223,Wunderground v.1.15,2015-08-27 16:00:00,
2015-08-27 18:05:00,82.7,64.4,29.99,West,279,1.0,6.0,54,0.00,,,0.00,257,Wunderground v.1.15,2015-08-27 16:05:00,
2015-08-27 18:10:00,82.5,64.7,29.99,West,277,1.0,1.0,55,0.00,,,0.00,239,Wunderground v.1.15,2015-08-27 16:10:00,
2015-08-27 18:15:00,82.5,64.2,29.99,West,281,0.0,1.0,54,0.00,,,0.00,188,Wunderground v.1.15,2015-08-27 16:15:00,
2015-08-27 18:20:00,82.4,63.5,29.99,SW,214,1.0,1.0,53,0.00,,,0.00,169,Wunderground v.1.15,2015-08-27 16:20:00,
2015-08-27 18:25:00,82.2,63.4,29.99,SW,231,1.0,1.0,53,0.00,,,0.00,151,Wunderground v.1.15,2015-08-27 16:25:00,
2015-08-27 18:30:00,82.0,65.8,29.99,West,274,0.0,0.0,58,0.00,,,0.00,151,Wunderground v.1.15,2015-08-27 16:30:00,
2015-08-27 18:35:00,81.7,65.5,29.99,WNW,284,0.0,0.0,58,0.00,,,0.00,76,Wunderground v.1.15,2015-08-27 16:35:00,
2015-08-27 18:40:00,81.3,65.6,29.99,WNW,294,0.0,0.0,59,0.00,,,0.00,76,Wunderground v.1.15,2015-08-27 16:40:00,
2015-08-27 18:50:00,80.7,66.0,29.99,WNW,294,0.0,0.0,61,0.00,,,0.00,72,Wunderground v.1.15,2015-08-27 16:50:00,
2015-08-27 18:55:00,80.5,65.8,29.99,WNW,294,0.0,0.0,61,0.00,,,0.00,70,Wunderground v.1.15,2015-08-27 16:55:00,
2015-08-27 19:00:00,80.2,65.5,29.99,WNW,294,0.0,0.0,61,0.00,,,0.00,65,Wunderground v.1.15,2015-08-27 17:00:00,
2015-08-27 19:05:00,79.9,66.2,29.99,WNW,294,0.0,0.0,63,0.00,,,0.00,70,Wunderground v.1.15,2015-08-27 17:05:00,
2015-08-27 19:10:00,79.6,65.9,29.99,WNW,294,0.0,0.0,63,0.00,,,0.00,65,Wunderground v.1.15,2015-08-27 17:10:00,
2015-08-27 19:15:00,79.4,67.0,29.99,WNW,294,0.0,0.0,66,0.00,,,0.00,53,Wunderground v.1.15,2015-08-27 17:15:00,
2015-08-27 19:25:00,78.8,65.6,29.99,WNW,299,0.0,0.0,64,0.00,,,0.00,39,Wunderground v.1.15,2015-08-27 17:25:00,
2015-08-27 19:30:00,78.5,65.8,29.99,WNW,299,0.0,0.0,65,0.00,,,0.00,33,Wunderground v.1.15,2015-08-27 17:30:00,
2015-08-27 19:35:00,78.2,65.9,29.99,WNW,299,0.0,0.0,66,0.00,,,0.00,26,Wunderground v.1.15,2015-08-27 17:35:00,
2015-08-27 19:40:00,77.9,66.1,29.99,WNW,299,0.0,0.0,67,0.00,,,0.00,23,Wunderground v.1.15,2015-08-27 17:40:00,
2015-08-27 19:45:00,77.6,66.2,30.00,WNW,299,0.0,0.0,68,0.00,,,0.00,18,Wunderground v.1.15,2015-08-27 17:45:00,
2015-08-27 19:50:00,77.3,65.9,30.00,WNW,299,0.0,0.0,68,0.00,,,0.00,14,Wunderground v.1.15,2015-08-27 17:50:00,
2015-08-27 19:55:00,77.0,66.0,30.00,WNW,299,0.0,0.0,69,0.00,,,0.00,9,Wunderground v.1.15,2015-08-27 17:55:00,
2015-08-27 20:00:00,76.5,66.4,30.00,WNW,299,0.0,0.0,71,0.00,,,0.00,5,Wunderground v.1.15,2015-08-27 18:00:00,
2015-08-27 20:05:00,76.0,66.7,30.00,WNW,299,0.0,0.0,73,0.00,,,0.00,0,Wunderground v.1.15,2015-08-27 18:05:00,
2015-08-27 20:10:00,75.5,67.0,30.00,WNW,299,0.0,0.0,75,0.00,,,0.00,0,Wunderground v.1.15,2015-08-27 18:10:00,
2015-08-27 20:15:00,74.9,66.4,30.00,WNW,299,0.0,0.0,75,0.00,,,0.00,0,Wunderground v.1.15,2015-08-27 18:15:00,
2015-08-27 20:20:00,74.3,66.6,30.00,WNW,299,0.0,0.0,77,0.00,,,0.00,0,Wunderground v.1.15,2015-08-27 18:20:00,
2015-08-27 20:30:00,73.3,66.4,30.00,WNW,299,0.0,0.0,79,0.00,,,0.00,0,Wunderground v.1.15,2015-08-27 18:30:00,
2015-08-27 20:35:00,72.9,66.4,30.00,WNW,299,0.0,0.0,80,0.00,,,0.00,0,Wunderground v.1.15,2015-08-27 18:35:00,
2015-08-27 20:40:00,72.3,65.8,30.00,WNW,299,0.0,0.0,80,0.00,,,0.00,0,Wunderground v.1.15,2015-08-27 18:40:00,
2015-08-27 20:45:00,72.0,65.5,30.00,WNW,299,0.0,0.0,80,0.00,,,0.00,0,Wunderground v.1.15,2015-08-27 18:45:00,
2015-08-27 20:50:00,71.7,65.2,30.01,WNW,299,0.0,0.0,80,0.00,,,0.00,0,Wunderground v.1.15,2015-08-27 18:50:00,
2015-08-27 21:00:00,71.3,65.2,30.01,WNW,299,0.0,0.0,81,0.00,,,0.00,0,Wunderground v.1.15,2015-08-27 19:00:00,
2015-08-27 21:10:00,71.0,64.9,30.01,WNW,299,0.0,0.0,81,0.00,,,0.00,0,Wunderground v.1.15,2015-08-27 19:10:00,
2015-08-27 21:15:00,70.7,64.9,30.01,WNW,299,0.0,0.0,82,0.00,,,0.00,0,Wunderground v.1.15,2015-08-27 19:15:00,
2015-08-27 21:20:00,70.5,64.7,30.01,WNW,299,0.0,0.0,82,0.00,,,0.00,0,Wunderground v.1.15,2015-08-27 19:20:00,
2015-08-27 21:25:00,70.3,64.9,30.01,WNW,299,0.0,0.0,83,0.00,,,0.00,0,Wunderground v.1.15,2015-08-27 19:25:00,
2015-08-27 21:30:00,70.2,64.8,30.02,WNW,299,0.0,0.0,83,0.00,,,0.00,0,Wunderground v.1.15,2015-08-27 19:30:00,
2015-08-27 21:35:00,70.1,64.7,30.02,WNW,299,0.0,0.0,83,0.00,,,0.00,0,Wunderground v.1.15,2015-08-27 19:35:00,
2015-08-27 21:40:00,69.8,64.7,30.02,WNW,299,0.0,0.0,84,0.00,,,0.00,0,Wunderground v.1.15,2015-08-27 19:40:00,
2015-08-27 21:50:00,69.4,64.7,30.02,WNW,299,0.0,0.0,85,0.00,,,0.00,0,Wunderground v.1.15,2015-08-27 19:50:00,
2015-08-27 21:55:00,69.3,64.6,30.02,WNW,299,0.0,0.0,85,0.00,,,0.00,0,Wunderground v.1.15,2015-08-27 19:55:00,
2015-08-27 22:05:00,69.1,64.7,30.02,WNW,299,0.0,0.0,86,0.00,,,0.00,0,Wunderground v.1.15,2015-08-27 20:05:00,
2015-08-27 22:10:00,68.9,64.5,30.02,WNW,299,0.0,0.0,86,0.00,,,0.00,0,Wunderground v.1.15,2015-08-27 20:10:00,
2015-08-27 22:15:00,68.7,64.3,30.02,WNW,299,0.0,0.0,86,0.00,,,0.00,0,Wunderground v.1.15,2015-08-27 20:15:00,
2015-08-27 22:20:00,68.6,64.2,30.03,WNW,299,0.0,0.0,86,0.00,,,0.00,0,Wunderground v.1.15,2015-08-27 20:20:00,
2015-08-27 22:25:00,68.5,64.1,30.03,WNW,299,0.0,0.0,86,0.00,,,0.00,0,Wunderground v.1.15,2015-08-27 20:25:00,
2015-08-27 22:35:00,68.3,63.9,30.03,WNW,299,0.0,0.0,86,0.00,,,0.00,0,Wunderground v.1.15,2015-08-27 20:35:00,
2015-08-27 22:40:00,68.3,63.9,30.03,WNW,299,0.0,0.0,86,0.00,,,0.00,0,Wunderground v.1.15,2015-08-27 20:40:00,
2015-08-27 22:45:00,68.2,63.9,30.04,WNW,299,0.0,0.0,86,0.00,,,0.00,0,Wunderground v.1.15,2015-08-27 20:45:00,
2015-08-27 22:50:00,68.0,63.7,30.04,WNW,299,0.0,0.0,86,0.00,,,0.00,0,Wunderground v.1.15,2015-08-27 20:50:00,
2015-08-27 23:00:00,68.2,63.5,30.04,NNW,328,0.0,0.0,85,0.00,,,0.00,0,Wunderground v.1.15,2015-08-27 21:00:00,
2015-08-27 23:05:00,68.3,63.6,30.04,NNW,328,0.0,0.0,85,0.00,,,0.00,0,Wunderground v.1.15,2015-08-27 21:05:00,
2015-08-27 23:10:00,68.2,63.2,30.04,NNW,328,0.0,0.0,84,0.00,,,0.00,0,Wunderground v.1.15,2015-08-27 21:10:00,
2015-08-27 23:15:00,68.1,63.1,30.04,NNW,328,0.0,0.0,84,0.00,,,0.00,0,Wunderground v.1.15,2015-08-27 21:15:00,
2015-08-27 23:20:00,68.1,63.1,30.04,NNW,342,0.0,0.0,84,0.00,,,0.00,0,Wunderground v.1.15,2015-08-27 21:20:00,